This is the latest recevied weather packets stored in our database for station/object K0WXC-1. If no packets are shown the sender has not sent any weather packets the latest 1 day(s).
| Time | Temp. | Humidity | Pressure | Rain* | Wind** | Luminosity | Snow |
|---|---|---|---|---|---|---|---|
| 1778059708 | 7.22° C | 68% | 1001.5 hPa | 0 mm | 0.45 m/s, 164° | - | - |
| 1778059648 | 7.22° C | 68% | 1001.5 hPa | 0 mm | 0.45 m/s, 164° | - | - |
| 1778059588 | 7.22° C | 68% | 1001.5 hPa | 0 mm | 0.45 m/s, 164° | - | - |
| 1778059408 | 7.22° C | 63% | 1001.2 hPa | 0 mm | 0.45 m/s, 193° | - | - |
| 1778059348 | 7.22° C | 63% | 1001.2 hPa | 0 mm | 0.45 m/s, 193° | - | - |
| 1778059288 | 7.22° C | 63% | 1001.2 hPa | 0 mm | 0.45 m/s, 193° | - | - |
| 1778059109 | 7.22° C | 64% | 1001 hPa | 0 mm | 0.45 m/s, 135° | - | - |
| 1778058929 | 7.22° C | 61% | 1001.3 hPa | 0 mm | 0 m/s | - | - |
| 1778058868 | 7.22° C | 61% | 1001.3 hPa | 0 mm | 0 m/s | - | - |
| 1778058808 | 7.22° C | 61% | 1001.3 hPa | 0 mm | 0 m/s | - | - |
| 1778058748 | 7.22° C | 61% | 1001.3 hPa | 0 mm | 0 m/s | - | - |
| 1778058688 | 7.22° C | 61% | 1001.3 hPa | 0 mm | 0 m/s | - | - |
| 1778058568 | 7.78° C | 60% | 1001 hPa | 0 mm | 0.45 m/s, 144° | - | - |
| 1778058508 | 7.78° C | 60% | 1001 hPa | 0 mm | 0.45 m/s, 144° | - | - |
| 1778058388 | 7.78° C | 60% | 1001 hPa | 0 mm | 0.45 m/s, 144° | - | - |
| 1778058328 | 7.78° C | 60% | 1000.9 hPa | 0 mm | 0.89 m/s, 50° | - | - |
| 1778058268 | 7.78° C | 60% | 1000.9 hPa | 0 mm | 0.89 m/s, 50° | - | - |
| 1778058089 | 7.78° C | 60% | 1000.9 hPa | 0 mm | 0.89 m/s, 50° | - | - |
| 1778057968 | 7.78° C | 64% | 1000.9 hPa | 0 mm | 0.89 m/s, 93° | - | - |
| 1778057908 | 7.78° C | 64% | 1000.9 hPa | 0 mm | 0.89 m/s, 93° | - | - |
| 1778057848 | 7.78° C | 64% | 1000.9 hPa | 0 mm | 0.89 m/s, 93° | - | - |
| 1778057788 | 7.78° C | 64% | 1000.9 hPa | 0 mm | 0.89 m/s, 93° | - | - |
| 1778057608 | 7.78° C | 61% | 1000.7 hPa | 0 mm | 0.45 m/s, 150° | - | - |
| 1778057548 | 7.78° C | 61% | 1000.7 hPa | 0 mm | 0.45 m/s, 150° | - | - |
| 1778057488 | 7.78° C | 61% | 1000.7 hPa | 0 mm | 0.45 m/s, 150° | - | - |
* Rain latest hour (hover to see other rain measurements)
** Current wind speed in m/s (hover to see current wind gust speed)